Wausau, WI

3:10 AM CDT on April 21, 2018 (GMT -0500)
Wausau Downtown

Weather History for KAUW - July, 2014

Change the Weather History Date:

Friday, July 18, 2014

  Actual Average Record
Temperature  
Mean Temperature 65 °F 70 °F  
Max Temperature 78 °F 80 °F 98 °F (1932)
Min Temperature 51 °F 59 °F 45 °F (1900)
Degree Days  
Heating Degree Days 0 1  
Month to date heating degree days 35 18  
Since 1 June heating degree days 57 107  
Since 1 July heating degree days 35 18  
Cooling Degree Days 0 5  
Month to date cooling degree days 33 90  
Year to date cooling degree days 168 194  
Since 1 June cooling degree days 143 175  
Growing Degree Days 15 (Base 50)    
Moisture  
Dew Point 54 °F    
Average Humidity 70    
Maximum Humidity 96    
Minimum Humidity 43    
Precipitation  
Precipitation 0.00 in 0.13 in 2.95 in (1978)
Month to date precipitation 1.85 2.16  
Year to date precipitation 18.80 16.38  
Snow  
Snow 0.00 in 0.00 in 0.00 in ()
Month to date snowfall 0.0 0.0  
Since 1 June snowfall 0.0  
Since 1 July snowfall 0.0 0.0  
Snow Depth 0.00 in    
Sea Level Pressure  
Sea Level Pressure 30.09 in    
Wind  
Wind Speed 8 mph (SSE)    
Max Wind Speed 16 mph    
Max Gust Speed 20 mph    
Visibility 10 miles    
Events      
T = Trace of Precipitation, MM = Missing Value Source: NWS Daily Summary

Daily Weather History Graph

Daily Weather History Graph

Search for Another Location

Airport or City:

Astronomy

Jul. 18, 2014 Rise Set
Actual Time 5:29 AM CDT 8:39 PM CDT
Civil Twilight 4:53 AM CDT 9:15 PM CDT
Nautical Twilight 4:07 AM CDT 10:00 PM CDT
Astronomical Twilight 3:11 AM CDT 10:56 PM CDT
Moon No Moon Rise 1:07 PM CDT (7/18)
Length of Visible Light 16h 21m
Length of Day
15h 10m
Waning Gibbous, 54% of the Moon is Illuminated
Jul 18
Waning Gibbous
Jul 18
Last Quarter
Jul 26
New
Aug 3
First Quarter
Aug 10
Full

Hourly Weather History & Observations

Time (CDT) Temp. Dew Point Humidity Pressure Visibility Wind Dir Wind Speed Gust Speed Precip Events Conditions
12:54 AM 57.0 °F 53.1 °F 87% 30.10 in 10.0 mi SSE 3.5 mph - N/A   Clear
1:54 AM 55.9 °F 52.0 °F 87% 30.10 in 10.0 mi ESE 4.6 mph - N/A   Clear
2:54 AM 55.9 °F 52.0 °F 87% 30.10 in 10.0 mi ESE 4.6 mph - N/A   Clear
3:54 AM 53.1 °F 50.0 °F 89% 30.12 in 10.0 mi East 4.6 mph - N/A   Clear
4:54 AM 53.1 °F 50.0 °F 89% 30.12 in 10.0 mi East 4.6 mph - N/A   Clear
5:54 AM 52.0 °F 50.0 °F 93% 30.13 in 10.0 mi East 5.8 mph - N/A   Clear
6:54 AM 55.9 °F 52.0 °F 87% 30.14 in 10.0 mi ESE 3.5 mph - N/A   Mostly Cloudy
7:54 AM 59.0 °F 53.1 °F 81% 30.14 in 10.0 mi ESE 5.8 mph - N/A   Overcast
8:54 AM 64.0 °F 54.0 °F 70% 30.14 in 10.0 mi SSE 5.8 mph - N/A   Clear
9:54 AM 70.0 °F 57.0 °F 63% 30.12 in 10.0 mi South 4.6 mph - N/A   Clear
10:54 AM 73.0 °F 55.0 °F 53% 30.12 in 10.0 mi SSW 5.8 mph - N/A   Clear
11:54 AM 75.0 °F 55.9 °F 51% 30.11 in 10.0 mi SSW 11.5 mph - N/A   Partly Cloudy
12:54 PM 75.0 °F 55.9 °F 51% 30.10 in 10.0 mi SW 9.2 mph - N/A   Mostly Cloudy
1:54 PM 77.0 °F 55.9 °F 48% 30.09 in 10.0 mi South 13.8 mph 18.4 mph N/A   Scattered Clouds
2:54 PM 77.0 °F 53.1 °F 43% 30.08 in 10.0 mi SW 12.7 mph - N/A   Scattered Clouds
3:34 PM 75.9 °F 55.9 °F 50% 30.07 in 10.0 mi South 11.5 mph - N/A   Scattered Clouds
3:54 PM 78.1 °F 55.9 °F 46% 30.07 in 10.0 mi South 13.8 mph - N/A   Partly Cloudy
4:54 PM 77.0 °F 55.9 °F 48% 30.07 in 10.0 mi South 15.0 mph - N/A   Mostly Cloudy
5:54 PM 77.0 °F 55.0 °F 47% 30.05 in 10.0 mi South 11.5 mph - N/A   Partly Cloudy
6:54 PM 75.0 °F 55.0 °F 50% 30.05 in 10.0 mi SSW 10.4 mph - N/A   Mostly Cloudy
7:54 PM 73.0 °F 55.9 °F 55% 30.04 in 10.0 mi South 8.1 mph - N/A   Scattered Clouds
8:54 PM 70.0 °F 55.9 °F 61% 30.04 in 10.0 mi South 6.9 mph - N/A   Clear
9:54 PM 66.9 °F 55.9 °F 68% 30.04 in 10.0 mi South 6.9 mph - 0.00 in   Clear
10:54 PM 64.9 °F 57.0 °F 75% 30.05 in 10.0 mi South 4.6 mph - N/A   Clear
11:54 PM 64.0 °F 57.0 °F 78% 30.05 in 10.0 mi SE 5.8 mph - N/A   Overcast